Time,TemperatureF,DewpointF,PressureIn,WindDirection,WindDirectionDegrees,WindSpeedMPH,WindSpeedGustMPH,Humidity,HourlyPrecipIn,Conditions,Clouds,dailyrainin,SolarRadiationWatts/m^2,SoftwareType,DateUTC
2013-02-24 00:22:00,41.0,30.0,30.09,NW,304,11.0,21.0,64,0.00,,,0.00,0.000000,,2013-02-24 08:22:00,
2013-02-24 00:31:00,41.0,30.0,30.09,NW,304,11.0,21.0,64,0.00,,,0.00,0.000000,,2013-02-24 08:31:00,
2013-02-24 00:41:00,41.0,30.0,30.09,NW,304,11.0,21.0,64,0.00,,,0.00,0.000000,,2013-02-24 08:41:00,
2013-02-24 00:53:00,41.0,30.0,30.09,NW,304,11.0,21.0,64,0.00,,,0.00,0.000000,,2013-02-24 08:53:00,
2013-02-24 01:21:00,36.0,28.0,-100.00,ENE,68,8.0,26.0,72,0.00,,,0.00,0.000000,,2013-02-24 09:21:00,
2013-02-24 01:31:00,36.0,28.0,-100.00,ENE,68,8.0,26.0,72,0.00,,,0.00,0.000000,,2013-02-24 09:31:00,
2013-02-24 01:41:00,36.0,28.0,-100.00,ENE,68,8.0,26.0,72,0.00,,,0.00,0.000000,,2013-02-24 09:41:00,
2013-02-24 01:51:00,36.0,28.0,-100.00,ENE,68,8.0,26.0,72,0.00,,,0.00,0.000000,,2013-02-24 09:51:00,
2013-02-24 02:21:00,35.0,14.0,30.09,ENE,72,10.0,14.0,42,0.00,,,0.00,0.000000,,2013-02-24 10:21:00,
2013-02-24 02:31:00,35.0,14.0,30.09,ENE,72,10.0,14.0,42,0.00,,,0.00,0.000000,,2013-02-24 10:31:00,
2013-02-24 02:41:00,35.0,14.0,30.09,ENE,72,10.0,14.0,42,0.00,,,0.00,0.000000,,2013-02-24 10:41:00,
2013-02-24 02:51:00,35.0,14.0,30.09,ENE,72,10.0,14.0,42,0.00,,,0.00,0.000000,,2013-02-24 10:51:00,
2013-02-24 03:21:00,33.0,13.0,-100.00,NE,53,5.0,19.0,43,0.00,,,0.00,0.000000,,2013-02-24 11:21:00,
2013-02-24 03:32:00,33.0,13.0,-100.00,NE,53,5.0,19.0,43,0.00,,,0.00,0.000000,,2013-02-24 11:32:00,
2013-02-24 03:41:00,33.0,13.0,-100.00,NE,53,5.0,19.0,43,0.00,,,0.00,0.000000,,2013-02-24 11:41:00,
2013-02-24 03:52:00,33.0,13.0,-100.00,NE,53,5.0,19.0,43,0.00,,,0.00,0.000000,,2013-02-24 11:52:00,
2013-02-24 04:21:00,33.0,8.0,-100.00,NE,52,11.0,13.0,34,0.00,,,0.00,0.000000,,2013-02-24 12:21:00,
2013-02-24 04:32:00,33.0,8.0,-100.00,NE,52,11.0,13.0,34,0.00,,,0.00,0.000000,,2013-02-24 12:32:00,
2013-02-24 04:46:00,33.0,8.0,-100.00,NE,52,11.0,13.0,34,0.00,,,0.00,0.000000,,2013-02-24 12:46:00,
2013-02-24 04:55:00,33.0,8.0,-100.00,NE,52,11.0,13.0,34,0.00,,,0.00,0.000000,,2013-02-24 12:55:00,
2013-02-24 05:25:00,33.0,8.0,-100.00,NE,43,11.0,15.0,35,0.00,,,0.00,0.000000,,2013-02-24 13:25:00,
2013-02-24 05:33:00,33.0,8.0,-100.00,NE,43,11.0,15.0,35,0.00,,,0.00,0.000000,,2013-02-24 13:33:00,
2013-02-24 05:43:00,33.0,8.0,-100.00,NE,43,11.0,15.0,35,0.00,,,0.00,0.000000,,2013-02-24 13:43:00,
2013-02-24 05:52:00,33.0,8.0,-100.00,NE,43,11.0,15.0,35,0.00,,,0.00,0.000000,,2013-02-24 13:52:00,
2013-02-24 06:23:00,34.0,7.0,-100.00,NNE,21,12.0,15.0,31,0.00,,,0.00,0.000000,,2013-02-24 14:23:00,
2013-02-24 06:32:00,34.0,7.0,-100.00,NNE,21,12.0,15.0,31,0.00,,,0.00,0.000000,,2013-02-24 14:32:00,
2013-02-24 06:43:00,34.0,7.0,-100.00,NNE,21,12.0,15.0,31,0.00,,,0.00,0.000000,,2013-02-24 14:43:00,
2013-02-24 06:52:00,34.0,7.0,-100.00,NNE,21,12.0,15.0,31,0.00,,,0.00,0.000000,,2013-02-24 14:52:00,
2013-02-24 07:22:00,34.0,6.0,-100.00,NNE,28,10.0,16.0,30,0.00,,,0.00,9.000000,,2013-02-24 15:22:00,
2013-02-24 07:32:00,34.0,6.0,-100.00,NNE,28,10.0,16.0,30,0.00,,,0.00,9.000000,,2013-02-24 15:32:00,
2013-02-24 07:42:00,34.0,6.0,-100.00,NNE,28,10.0,16.0,30,0.00,,,0.00,9.000000,,2013-02-24 15:42:00,
2013-02-24 07:52:00,34.0,6.0,-100.00,NNE,28,10.0,16.0,30,0.00,,,0.00,9.000000,,2013-02-24 15:52:00,
2013-02-24 08:21:00,40.0,8.0,-100.00,NE,51,14.0,18.0,26,0.00,,,0.00,163.000000,,2013-02-24 16:21:00,
2013-02-24 08:31:00,40.0,8.0,-100.00,NE,51,14.0,18.0,26,0.00,,,0.00,163.000000,,2013-02-24 16:31:00,
2013-02-24 08:41:00,40.0,8.0,-100.00,NE,51,14.0,18.0,26,0.00,,,0.00,163.000000,,2013-02-24 16:41:00,
2013-02-24 08:52:00,40.0,8.0,-100.00,NE,51,14.0,18.0,26,0.00,,,0.00,163.000000,,2013-02-24 16:52:00,
2013-02-24 09:21:00,42.0,7.0,-100.00,ENE,74,18.0,18.0,23,0.00,,,0.00,417.000000,,2013-02-24 17:21:00,
2013-02-24 09:32:00,42.0,7.0,-100.00,ENE,74,18.0,18.0,23,0.00,,,0.00,417.000000,,2013-02-24 17:32:00,
2013-02-24 09:41:00,42.0,7.0,-100.00,ENE,74,18.0,18.0,23,0.00,,,0.00,417.000000,,2013-02-24 17:41:00,
2013-02-24 09:52:00,42.0,7.0,-100.00,ENE,74,18.0,18.0,23,0.00,,,0.00,417.000000,,2013-02-24 17:52:00,
2013-02-24 10:22:00,47.0,6.0,-100.00,ENE,69,24.0,32.0,18,0.00,,,0.00,625.000000,,2013-02-24 18:22:00,
2013-02-24 10:31:00,47.0,6.0,-100.00,ENE,69,24.0,32.0,18,0.00,,,0.00,625.000000,,2013-02-24 18:31:00,
2013-02-24 10:42:00,47.0,6.0,-100.00,ENE,69,24.0,32.0,18,0.00,,,0.00,625.000000,,2013-02-24 18:42:00,
2013-02-24 10:51:00,47.0,6.0,-100.00,ENE,69,24.0,32.0,18,0.00,,,0.00,625.000000,,2013-02-24 18:51:00,
2013-02-24 11:22:00,48.0,5.0,-100.00,ENE,69,23.0,35.0,17,0.00,,,0.00,779.000000,,2013-02-24 19:22:00,
2013-02-24 11:32:00,48.0,5.0,-100.00,ENE,69,23.0,35.0,17,0.00,,,0.00,779.000000,,2013-02-24 19:32:00,
2013-02-24 11:41:00,48.0,5.0,-100.00,ENE,69,23.0,35.0,17,0.00,,,0.00,779.000000,,2013-02-24 19:41:00,
2013-02-24 11:51:00,48.0,5.0,-100.00,ENE,69,23.0,35.0,17,0.00,,,0.00,779.000000,,2013-02-24 19:51:00,
2013-02-24 12:21:00,52.0,4.0,-100.00,East,79,25.0,36.0,14,0.00,,,0.00,855.000000,,2013-02-24 20:21:00,
2013-02-24 12:31:00,52.0,4.0,-100.00,East,79,25.0,36.0,14,0.00,,,0.00,855.000000,,2013-02-24 20:31:00,
2013-02-24 12:41:00,52.0,4.0,-100.00,East,79,25.0,36.0,14,0.00,,,0.00,855.000000,,2013-02-24 20:41:00,
2013-02-24 12:52:00,52.0,4.0,-100.00,East,79,25.0,36.0,14,0.00,,,0.00,855.000000,,2013-02-24 20:52:00,
2013-02-24 13:21:00,54.0,4.0,-100.00,ENE,70,24.0,37.0,13,0.00,,,0.00,897.000000,,2013-02-24 21:21:00,
2013-02-24 13:32:00,54.0,4.0,-100.00,ENE,70,24.0,37.0,13,0.00,,,0.00,897.000000,,2013-02-24 21:32:00,
2013-02-24 13:41:00,54.0,4.0,-100.00,ENE,70,24.0,37.0,13,0.00,,,0.00,897.000000,,2013-02-24 21:41:00,
2013-02-24 13:52:00,54.0,4.0,-100.00,ENE,70,24.0,37.0,13,0.00,,,0.00,897.000000,,2013-02-24 21:52:00,
2013-02-24 14:21:00,55.0,1.0,-100.00,ENE,70,23.0,38.0,11,0.00,,,-99.99,835.000000,,2013-02-24 22:21:00,
2013-02-24 14:31:00,55.0,1.0,-100.00,ENE,70,23.0,38.0,11,0.00,,,-99.99,835.000000,,2013-02-24 22:31:00,
2013-02-24 14:41:00,55.0,1.0,-100.00,ENE,70,23.0,38.0,11,0.00,,,-99.99,835.000000,,2013-02-24 22:41:00,
2013-02-24 14:51:00,55.0,1.0,-100.00,ENE,70,23.0,38.0,11,0.00,,,-99.99,835.000000,,2013-02-24 22:51:00,
2013-02-24 15:21:00,56.0,0.0,-100.00,ENE,71,19.0,35.0,10,0.00,,,0.00,706.000000,,2013-02-24 23:21:00,
2013-02-24 15:31:00,56.0,0.0,-100.00,ENE,71,19.0,35.0,10,0.00,,,0.00,706.000000,,2013-02-24 23:31:00,
2013-02-24 15:41:00,56.0,0.0,-100.00,ENE,71,19.0,35.0,10,0.00,,,0.00,706.000000,,2013-02-24 23:41:00,
2013-02-24 15:52:00,56.0,0.0,-100.00,ENE,71,19.0,35.0,10,0.00,,,0.00,706.000000,,2013-02-24 23:52:00,
2013-02-24 16:21:00,56.0,-2.0,-100.00,ENE,71,17.0,33.0,9,0.00,,,0.00,517.000000,,2013-02-25 00:21:00,
2013-02-24 16:31:00,56.0,-2.0,-100.00,ENE,71,17.0,33.0,9,0.00,,,0.00,517.000000,,2013-02-25 00:31:00,
2013-02-24 16:41:00,56.0,-2.0,-100.00,ENE,71,17.0,33.0,9,0.00,,,0.00,517.000000,,2013-02-25 00:41:00,
2013-02-24 16:51:00,56.0,-2.0,-100.00,ENE,71,17.0,33.0,9,0.00,,,0.00,517.000000,,2013-02-25 00:51:00,
2013-02-24 17:21:00,54.0,-4.0,-100.00,ENE,77,17.0,26.0,9,0.00,,,0.00,160.000000,,2013-02-25 01:21:00,
2013-02-24 17:31:00,54.0,-4.0,-100.00,ENE,77,17.0,26.0,9,0.00,,,0.00,160.000000,,2013-02-25 01:31:00,
2013-02-24 17:42:00,54.0,-4.0,-100.00,ENE,77,17.0,26.0,9,0.00,,,0.00,160.000000,,2013-02-25 01:42:00,
2013-02-24 17:51:00,54.0,-4.0,-100.00,ENE,77,17.0,26.0,9,0.00,,,0.00,160.000000,,2013-02-25 01:51:00,
2013-02-24 18:21:00,43.0,-3.0,-100.00,ENE,59,6.0,22.0,14,0.00,,,0.00,25.000000,,2013-02-25 02:21:00,
2013-02-24 19:21:00,41.0,-3.0,30.15,South,187,6.0,10.0,15,-99.99,,,0.00,0.000000,,2013-02-25 03:21:00,
2013-02-24 19:41:00,41.0,-3.0,30.15,South,187,6.0,10.0,15,-99.99,,,0.00,0.000000,,2013-02-25 03:41:00,
2013-02-24 19:51:00,41.0,-3.0,30.15,South,187,6.0,10.0,15,-99.99,,,0.00,0.000000,,2013-02-25 03:51:00,
2013-02-24 20:21:00,37.0,-1.0,30.17,North,1,2.0,9.0,19,0.00,,,0.00,0.000000,,2013-02-25 04:21:00,
2013-02-24 20:41:00,37.0,-1.0,30.17,North,1,2.0,9.0,19,0.00,,,0.00,0.000000,,2013-02-25 04:41:00,
2013-02-24 20:51:00,37.0,-1.0,30.17,North,1,2.0,9.0,19,0.00,,,0.00,0.000000,,2013-02-25 04:51:00,
2013-02-24 21:22:00,36.0,3.0,30.19,NW,315,6.0,8.0,24,0.00,,,0.00,0.000000,,2013-02-25 05:22:00,
2013-02-24 21:31:00,36.0,3.0,30.19,NW,315,6.0,8.0,24,0.00,,,0.00,0.000000,,2013-02-25 05:31:00,
2013-02-24 21:41:00,36.0,3.0,30.19,NW,315,6.0,8.0,24,0.00,,,0.00,0.000000,,2013-02-25 05:41:00,
2013-02-24 21:52:00,36.0,3.0,30.19,NW,315,6.0,8.0,24,0.00,,,0.00,0.000000,,2013-02-25 05:52:00,
2013-02-24 22:21:00,33.0,2.0,30.22,NW,325,7.0,10.0,26,0.00,,,0.00,0.000000,,2013-02-25 06:21:00,
2013-02-24 22:31:00,33.0,2.0,30.22,NW,325,7.0,10.0,26,0.00,,,0.00,0.000000,,2013-02-25 06:31:00,
2013-02-24 22:41:00,33.0,2.0,30.22,NW,325,7.0,10.0,26,0.00,,,0.00,0.000000,,2013-02-25 06:41:00,
2013-02-24 22:51:00,33.0,2.0,30.22,NW,325,7.0,10.0,26,0.00,,,0.00,0.000000,,2013-02-25 06:51:00,
2013-02-24 23:11:00,33.0,2.0,-100.00,NW,325,8.0,11.0,26,0.00,,,0.00,0.000000,,2013-02-25 07:11:00,
2013-02-24 23:21:00,33.0,2.0,-100.00,NW,325,8.0,11.0,26,0.00,,,0.00,0.000000,,2013-02-25 07:21:00,
2013-02-24 23:31:00,33.0,2.0,-100.00,NW,325,8.0,11.0,26,0.00,,,0.00,0.000000,,2013-02-25 07:31:00,
2013-02-24 23:41:00,33.0,2.0,-100.00,NW,325,8.0,11.0,26,0.00,,,0.00,0.000000,,2013-02-25 07:41:00,
2013-02-24 23:51:00,33.0,2.0,-100.00,NW,325,8.0,11.0,26,0.00,,,0.00,0.000000,,2013-02-25 07:51:00,